OpenBCM V1.08-5-g2f4a (Linux)

Packet Radio Mailbox

IZ3LSV

[San Dona' di P. JN]

 Login: GUEST





  
CX2SA  > KEP      18.04.20 00:18l 94 Lines 3940 Bytes #999 (0) @ ARL
BID : ARLK031
Read: GUEST
Subj: ARLK031 Keplerian data
Path: IZ3LSV<I0OJJ<I0OJJ<N6RME<CX2SA
Sent: 200417/2211Z @:CX2SA.SAL.URY.SOAM #:29096 [Salto] FBB7.00e $:ARLK031

>From cx2sa%cx2sa.sal.ury.soam@i0ojj.ampr.org Sat Apr 18 00:15:20 2020
Received: from i0ojj.ampr.org by i0ojj.ampr.org (JNOS2.0n.beta1) with SMTP
	id AA106988 ; Sat, 18 Apr 2020 00:15:20 +0200
Message-Id: <ARLK031@i0ojj.bbs>
>From: cx2sa@cx2sa.sal.ury.soam
X-JNOS-User-Port: Telnet   (i0ojj @ 44.134.32.240)  -> Sending message

From: CX2SA@CX2SA.SAL.URY.SOAM
To  : KEP@ARL


ZCZC SK31
QST de W1AW
Keplerian Bulletin 31  ARLK031
>From ARRL Headquarters
Newington, CT  April 17, 2020
To all radio amateurs

SB KEP ARL ARLK031
ARLK031 Keplerian data

Special thanks to AMSAT-NA (AMSAT.ORG) for the following Keplerian
data.

Decode 2-line elsets with the following key:
1 AAAAAU 00  0  0 BBBBB.BBBBBBBB  .CCCCCCCC  00000-0  00000-0 0  DDDZ
2 AAAAA EEE.EEEE FFF.FFFF GGGGGGG HHH.HHHH III.IIII JJ.JJJJJJJJKKKKKZ
KEY: A-CATALOGNUM B-EPOCHTIME C-DECAY D-ELSETNUM E-INCLINATION F-RAAN
G-ECCENTRICITY H-ARGPERIGEE I-MNANOM J-MNMOTION K-ORBITNUM Z-CHECKSUM

0 AO-07
1 7530U 74089B   20108.52179444 -.00000024 +00000-0 +13345-3 0  9996
2 7530 101.7942 078.6173 0012488 120.2274 350.9376 12.53643039078356
0 FO-29
1 24278U 96046B   20108.60810170 -.00000028 +00000-0 +62572-5 0  9990
2 24278 098.5749 226.4348 0350626 172.2579 188.4175 13.53097772168655
0 ISS
1 25544U 98067A   20108.58981510 -.00000108  00000-0  62451-5 0  9991
2 25544  51.6434 288.3775 0003713 124.5833 271.7036 15.48696990222622
0 SO-50
1 27607U 02058C   20108.37397091 -.00000018 +00000-0 +18134-4 0  9998
2 27607 064.5555 201.1139 0055689 193.2872 166.6768 14.75625809931714
0 CO-55
1 27844U 03031E   20108.57821148 +.00000056 +00000-0 +45142-4 0  9990
2 27844 098.6840 117.2275 0008949 226.9259 133.1170 14.22231854871444
0 RS-22
1 27939U 03042A   20108.60790738 +.00000087 +00000-0 +24220-4 0  9999
2 27939 098.0795 244.2703 0013066 179.7990 180.3224 14.66851570885093
0 RS-30
1 32953U 08025A   20108.39034503  .00000037  00000-0  19437-3 0  9992
2 32953  82.5024 315.8929 0018946 184.9302 175.1595 12.43095184540040
0 KKS-1
1 33499U 09002H   20108.55468768 +.00000086 +00000-0 +20595-4 0  9998
2 33499 098.3249 321.5676 0008364 326.3848 033.6829 14.75521151603608
0 AO-71
1 37854U 11061E   20108.42426839 +.00000731 +00000-0 +44847-4 0  9997
2 37854 101.7026 168.1997 0158639 243.2180 115.2729 15.07135381462282
0 AO-73
1 39444U 13066AE  20108.53410649 +.00000271 +00000-0 +39313-4 0  9996
2 39444 097.5598 112.1442 0059495 109.6444 251.1204 14.82097493344344
0 UKUBE 1
1 40074U 14037F   20108.49126560 +.00000279 +00000-0 +40573-4 0  9995
2 40074 098.4548 293.1972 0004042 332.0840 028.0169 14.84232998312718
0 XW-2A
1 40903U 15049E   20108.48456291  .00002329  00000-0  54878-4 0  9997
2 40903  97.2950 157.3764 0014662 119.6318 354.0787 15.42875589257070
0 XW-2F
1 40910U 15049M   20108.52132550  .00001039  00000-0  54625-4 0  9996
2 40910  97.4691 112.9523 0013665 207.2259 270.5541 15.17834102253098
0 XW-2B
1 40911U 15049N   20108.51270446  .00000601  00000-0  34564-4 0  9997
2 40911  97.4763 111.1535 0012849 218.2882 259.4812 15.16158672252939
0 IO-86
1 40931U 15052B   20108.29120752  .00000807  00000-0  23326-4 0  9994
2 40931   5.9960  51.5963 0012737 133.8742 226.3264 14.76633403246201
0 CAS-4B
1 42759U 17034B   20108.43773597  .00000309  00000-0  32291-4 0  9991
2 42759  43.0206   2.2861 0011505 359.8401 169.1055 15.09791333156746
0 CAS-4A
1 42761U 17034D   20108.56521295  .00000291  00000-0  31140-4 0  9996
2 42761  43.0206   0.9232 0012160   2.1853  66.2830 15.09869724156763
0 AO-91
1 43017U 17073E   20108.56351537 +.00000313 +00000-0 +30398-4 0  9993
2 43017 097.7249 023.1444 0255728 248.6531 108.7214 14.78883006130160
0 AO-92
1 43137U 18004AC  20108.42415532 +.00000948 +00000-0 +42097-4 0  9995
2 43137 097.4496 179.9892 0007483 270.0073 090.0306 15.24006960125756

Keplerian bulletins are transmitted twice weekly from W1AW.  The
next scheduled transmission of these data will be Tuesday, April 21,
2020, at 2230z on Baudot and BPSK31.
NNNN



Read previous mail | Read next mail


 14.10.2025 05:02:42lGo back Go up